GFSMA_sfc_wetblb_021.txt.gz
Wetbulb
65.76 65.84 64.86 64.46 64.31 64.36 64.32 64.33 64.40 64.57 64.89 66.39 66.59 66.43 66.26 66.73 67.08 66.71 65.14 66.58 67.31 68.04 68.94 70.62 71.33 71.80 71.92 71.36 70.34 69.58 69.40 69.27 69.06 68.44 68.44 68.58 69.54 70.07 70.00 69.29 68.49 67.96 67.54
65.65 64.92 64.55 64.26 64.50 64.59 64.33 64.14 63.54 63.95 64.61 65.82 65.86 66.19 66.24 66.57 66.46 65.74 64.30 66.44 66.71 67.15 68.17 70.35 71.36 71.53 72.25 71.36 70.40 69.31 68.66 68.70 68.34 68.21 67.94 67.79 69.07 69.56 69.33 68.27 67.41 66.69 66.21
65.65 65.56 64.77 64.80 65.12 64.26 63.40 64.08 63.96 64.30 64.23 65.14 65.14 65.53 65.97 66.00 65.50 64.89 65.48 66.81 67.88 67.00 68.17 69.95 70.94 71.48 72.11 71.34 70.37 69.40 68.28 68.31 67.96 67.69 67.61 67.86 68.60 69.16 68.12 67.15 66.31 65.97 65.46
66.43 66.06 65.18 64.85 65.25 64.28 63.83 63.36 63.40 62.69 63.49 63.82 64.55 65.05 65.11 65.24 65.28 65.24 65.87 66.41 67.91 68.93 70.06 69.81 70.38 71.18 71.80 71.39 70.92 70.20 69.02 68.09 67.53 67.22 67.48 68.34 68.03 67.93 67.32 66.15 65.88 65.59 65.15
66.27 66.03 64.79 64.76 65.05 63.78 63.16 63.51 62.88 62.88 62.93 63.52 63.89 64.29 64.52 64.77 65.17 65.40 66.17 68.01 69.00 69.81 70.80 70.13 70.29 70.20 70.74 71.17 70.93 70.09 68.78 67.93 67.61 67.39 67.77 67.74 67.90 67.57 67.11 66.26 65.80 65.32 64.60
66.38 66.13 63.01 63.37 63.77 63.12 62.73 62.91 62.93 62.86 63.12 63.34 63.28 63.09 64.28 65.30 65.58 66.46 66.99 68.32 68.47 70.11 70.75 70.56 71.21 69.20 69.00 70.36 70.50 69.47 69.05 68.48 67.42 67.67 67.09 67.39 67.24 67.27 66.66 65.42 65.03 64.56 64.00
66.18 64.38 62.78 63.18 62.75 61.79 62.53 63.06 62.74 62.43 62.71 63.56 62.29 59.88 62.75 65.11 65.80 66.92 68.42 68.00 66.20 68.02 69.30 70.39 69.09 64.88 69.09 69.20 68.86 68.94 69.03 68.15 67.94 67.49 67.05 66.93 67.13 66.70 65.64 65.10 64.53 64.03 63.48
66.20 64.18 63.94 60.51 61.66 61.97 62.76 62.80 62.28 61.40 62.63 63.30 61.28 61.58 57.90 61.20 64.42 65.92 66.33 66.15 66.24 68.41 67.93 69.98 69.20 68.84 69.05 68.73 67.95 68.43 68.28 68.03 68.36 67.47 67.33 66.65 66.45 65.57 65.41 65.00 64.50 63.69 63.25
65.41 63.68 63.19 62.81 63.06 63.45 63.15 62.65 62.03 62.17 60.81 62.31 63.35 61.82 56.82 55.68 60.62 65.12 65.60 65.78 66.46 66.98 68.11 67.63 68.57 68.04 68.52 67.90 67.47 67.87 67.19 67.66 67.79 67.39 66.85 65.29 64.11 65.50 65.41 64.73 64.04 63.75 63.39
65.12 63.28 64.52 63.56 63.95 63.66 63.15 62.52 62.62 62.49 63.19 60.65 61.58 64.68 64.91 63.47 59.48 58.71 63.60 64.67 65.55 64.21 66.05 67.36 67.54 66.80 66.73 67.14 67.23 66.63 66.60 67.29 66.96 66.16 65.13 65.14 65.98 65.66 64.98 64.49 63.98 63.67 63.14
64.86 63.63 64.80 64.07 64.17 63.64 63.67 63.10 62.76 62.91 63.23 63.96 63.61 63.65 64.09 63.47 63.83 61.58 58.00 60.04 62.99 64.85 64.74 64.55 64.87 65.46 65.37 65.43 65.23 66.12 65.01 64.65 64.92 65.15 66.06 66.58 66.06 65.56 64.93 64.45 64.20 63.49 62.88
64.40 64.74 64.11 64.63 64.55 64.16 63.70 63.13 63.51 63.77 63.98 64.87 64.98 64.60 63.44 61.65 61.58 62.47 59.01 59.18 59.56 61.62 64.06 65.04 65.03 64.55 64.56 65.28 65.23 64.14 63.54 62.95 62.71 63.44 64.56 65.33 65.69 65.89 64.95 64.31 63.84 63.45 62.91
63.54 64.26 64.50 64.33 64.35 64.42 64.31 63.95 63.90 63.78 63.88 63.97 64.69 64.71 65.20 63.11 63.21 64.81 61.90 59.44 58.97 60.60 61.13 64.13 63.94 64.26 64.35 63.77 63.94 64.34 63.73 62.21 61.22 61.32 62.04 63.12 64.33 64.65 64.70 64.28 63.84 63.24 62.86
63.65 64.68 64.56 64.74 64.30 64.54 64.66 64.56 63.76 63.76 64.51 64.96 64.49 64.54 64.66 65.50 66.04 67.00 61.65 60.65 58.37 59.65 60.78 60.16 63.58 63.83 62.97 63.19 64.46 64.33 63.13 61.26 60.29 59.50 59.88 60.59 61.78 62.56 63.02 63.14 63.47 63.18 62.91
63.70 64.47 64.57 64.18 64.81 64.64 63.94 64.99 63.64 63.52 64.28 63.69 61.47 60.96 62.31 64.49 65.35 66.49 66.29 64.63 61.41 56.36 57.70 60.20 60.38 62.78 63.38 63.98 64.21 64.31 63.62 61.03 60.44 58.82 58.93 59.18 59.87 60.38 60.77 60.89 60.92 61.17 61.38
64.33 64.41 64.30 64.49 64.63 64.92 64.59 64.72 63.81 64.45 63.89 63.17 63.17 63.49 63.67 64.18 64.30 64.86 65.07 63.52 63.16 60.05 57.24 60.68 61.06 61.65 63.03 63.38 64.12 63.41 62.96 61.46 59.21 58.42 58.52 58.12 57.90 58.36 58.53 58.86 59.30 59.54 60.09
64.46 64.06 64.00 64.32 64.56 62.47 62.80 63.11 63.39 62.69 61.84 62.42 63.22 62.62 62.82 63.83 63.68 63.85 64.65 63.98 62.49 60.83 58.44 59.96 61.80 62.18 62.30 62.17 62.46 62.27 62.70 61.65 60.29 57.97 58.16 57.07 56.49 56.70 57.19 57.18 57.36 57.78 57.62
64.94 64.05 63.85 63.92 61.59 61.13 61.98 62.06 61.62 61.85 62.35 60.95 61.79 61.91 62.36 63.26 62.86 61.86 62.14 63.69 62.48 62.94 60.72 58.42 60.35 61.12 61.11 61.93 61.51 61.33 61.95 62.24 61.92 58.15 57.10 56.09 55.84 55.94 55.60 55.36 54.57 53.86 53.00
64.65 64.27 63.87 63.40 61.28 61.20 62.10 62.45 62.01 61.71 62.19 62.45 62.18 62.29 62.53 62.86 62.19 61.41 61.63 62.98 63.26 62.82 61.38 59.94 59.53 60.87 60.51 60.90 60.01 60.83 61.03 60.85 60.06 58.97 56.12 55.94 55.76 55.48 54.67 53.60 52.78 51.79 50.17
64.48 64.16 64.27 63.35 61.10 61.36 61.54 61.56 61.91 62.28 62.27 62.26 63.28 64.35 64.03 62.71 63.52 63.68 61.95 62.73 62.21 61.01 61.09 59.86 59.69 58.97 59.19 59.83 59.90 58.28 58.06 60.50 59.14 60.60 56.15 55.70 55.05 53.17 52.81 52.54 51.55 50.14 47.96
64.56 64.39 64.24 63.64 60.86 60.70 60.65 61.45 61.75 62.27 62.38 62.35 62.82 62.61 63.54 62.54 59.64 60.58 62.88 62.45 61.63 60.60 59.81 59.35 58.64 57.86 57.74 58.59 57.92 58.81 58.96 59.28 60.86 62.24 60.18 59.81 58.66 56.13 54.55 51.45 50.62 49.01 47.26
64.23 64.08 63.82 63.66 61.55 59.86 49.91 53.45 58.75 61.51 62.21 62.47 61.23 62.19 61.25 58.34 55.80 53.86 54.42 55.75 60.07 60.31 59.14 58.80 58.22 57.36 58.24 58.14 57.82 59.12 59.23 58.92 57.46 62.18 57.78 55.29 55.80 54.13 53.43 52.01 47.06 45.78 44.96
64.69 64.15 63.27 63.56 60.73 59.52 48.68 50.31 53.88 62.37 62.71 62.18 62.16 62.19 60.46 61.13 61.63 61.12 53.08 53.64 53.32 52.65 55.66 60.33 58.44 58.71 58.53 59.17 61.44 60.56 60.90 60.65 59.68 60.65 57.19 52.45 54.60 52.57 52.53 48.72 44.58 43.82 43.30
64.10 61.90 61.66 61.54 60.79 58.14 46.51 48.32 52.43 62.99 62.50 63.04 63.10 62.38 61.28 63.59 60.31 62.12 60.75 60.48 61.80 59.71 59.89 60.65 60.75 60.67 63.79 64.00 63.93 62.95 62.02 58.78 59.05 59.50 59.74 52.75 54.49 51.63 51.34 48.73 44.55 43.14 41.98
63.25 60.96 61.17 60.40 58.04 54.09 45.78 47.41 56.62 61.54 61.25 62.45 62.75 62.83 63.19 63.66 48.10 50.96 59.16 58.49 58.24 56.74 48.49 46.30 47.55 48.38 47.77 50.02 56.53 61.12 59.13 59.30 56.99 56.35 58.49 55.45 54.87 52.75 52.57 50.73 47.55 42.58 41.22
62.85 63.59 61.63 60.62 54.97 57.20 45.06 47.59 56.46 60.42 59.78 59.99 61.99 61.99 51.74 56.36 45.60 50.55 62.54 62.26 60.57 59.27 58.89 59.64 59.27 54.78 56.39 53.12 52.55 64.45 61.99 59.91 57.50 54.47 56.33 54.30 54.09 53.81 51.14 51.82 49.41 49.75 47.62

GFSMA_sfc_wetblb_024.txt.gz
Wetbulb
68.10 68.22 67.89 67.10 66.15 65.97 65.72 65.76 65.95 66.16 65.95 66.39 66.67 66.72 65.96 67.25 67.32 67.41 67.85 66.51 67.02 67.74 68.43 69.12 70.19 71.28 71.76 72.04 71.29 71.29 70.76 69.72 69.21 69.05 69.19 69.58 69.57 69.46 69.90 69.88 69.56 69.19 68.45
68.41 68.16 67.73 66.28 66.39 67.06 66.58 65.79 65.60 65.40 65.52 65.75 66.39 66.88 66.98 66.64 67.25 68.30 68.23 66.46 66.78 67.44 67.79 68.62 70.18 71.48 71.74 71.61 70.92 70.74 69.83 68.30 68.14 68.51 68.46 68.41 68.19 68.66 69.01 69.29 68.60 67.98 67.02
69.04 68.87 67.70 66.81 67.21 67.99 67.68 66.88 65.62 65.80 65.20 65.60 66.15 66.83 66.93 67.56 67.22 67.27 67.27 65.30 66.63 67.50 67.62 67.94 70.14 71.17 71.59 71.77 71.36 70.56 69.33 68.68 68.32 68.34 67.96 67.80 67.51 68.09 68.57 68.25 67.45 66.82 65.97
69.12 68.41 66.88 66.71 67.31 67.33 66.55 65.56 64.34 64.24 64.29 64.39 66.02 66.16 66.54 67.19 66.59 66.92 65.19 65.04 66.38 67.63 68.09 68.70 70.28 71.09 71.33 71.60 71.44 70.47 69.36 68.99 68.19 67.45 67.06 66.99 67.33 68.00 68.54 67.16 66.34 65.81 65.45
69.01 67.85 67.77 66.77 67.60 66.44 66.06 65.96 65.09 64.55 63.47 64.34 64.03 65.26 65.76 66.11 65.62 64.59 64.75 66.28 68.56 68.74 68.10 70.48 69.96 70.39 70.88 71.28 71.38 70.72 69.14 68.61 68.12 67.41 66.78 67.29 67.77 67.95 67.37 66.83 65.76 65.49 65.13
68.55 68.16 67.84 67.38 64.81 63.61 65.44 64.98 64.75 65.02 64.22 64.69 64.09 63.99 65.27 65.47 65.40 64.49 65.52 67.44 68.78 69.26 69.64 70.80 71.65 70.93 70.21 71.11 71.12 70.59 69.81 68.76 67.47 66.93 67.28 67.41 67.54 67.60 67.21 66.70 65.68 64.97 64.54
67.58 67.38 67.36 63.47 64.03 63.51 62.83 64.63 65.01 63.27 64.32 65.22 63.32 62.96 64.44 65.62 64.94 64.75 66.64 68.37 68.67 69.34 70.51 70.92 71.52 70.48 69.51 62.69 69.77 69.85 69.92 68.69 67.95 67.64 67.28 66.78 67.32 67.43 67.04 65.68 64.92 64.58 63.88
67.29 66.83 66.28 65.46 63.65 61.52 63.59 64.06 64.15 63.37 63.55 65.53 62.76 62.44 59.45 61.52 64.40 66.35 66.87 67.81 67.96 68.68 69.43 70.67 69.37 67.11 64.98 63.41 68.09 68.71 69.46 68.91 68.67 67.95 66.84 66.86 66.97 66.79 65.82 65.07 64.53 64.10 63.36
67.55 66.53 65.96 63.99 64.21 64.14 64.25 65.13 64.65 62.82 62.70 65.05 65.52 62.76 59.06 57.05 60.39 65.32 66.59 67.03 67.84 68.62 69.40 70.07 69.79 68.40 68.97 65.88 66.08 67.99 68.08 67.84 68.39 67.67 66.98 67.03 66.49 65.82 64.99 64.96 64.26 63.83 63.50
66.68 66.58 65.81 65.30 65.63 65.80 65.23 65.57 64.93 64.42 64.64 63.36 65.02 64.74 64.68 63.17 58.17 59.86 65.62 66.75 68.04 68.11 69.06 69.97 69.78 68.83 69.68 67.29 66.29 67.81 66.68 67.12 67.13 67.08 66.35 64.47 64.41 64.04 65.26 64.89 64.23 63.84 63.47
66.04 65.57 66.51 66.01 65.69 66.69 66.39 65.62 64.09 63.59 66.15 64.81 63.45 64.86 64.70 63.06 64.47 62.63 60.29 62.35 65.14 66.10 67.76 68.53 68.54 68.38 68.72 68.00 66.96 66.18 65.51 65.69 64.95 65.39 65.19 64.90 65.22 65.59 65.08 64.60 64.32 63.90 63.23
66.49 66.23 65.93 65.99 66.68 66.50 65.46 65.09 65.16 64.86 65.65 65.80 65.40 64.55 64.72 61.56 61.64 63.39 62.85 61.50 61.31 62.60 64.20 65.99 65.83 66.24 66.20 66.33 66.52 64.95 64.46 63.30 62.58 63.00 63.64 65.16 65.90 65.85 65.13 64.72 64.27 63.68 63.24
65.45 65.68 66.30 66.29 66.11 66.33 66.14 65.76 65.67 65.50 65.61 65.94 65.74 64.07 65.19 65.44 66.20 66.18 64.74 61.16 59.59 61.09 62.73 66.45 65.70 64.90 65.22 64.22 64.64 63.90 63.52 62.11 61.66 61.86 62.11 63.22 64.25 64.78 64.83 64.68 64.22 63.36 63.17
66.06 66.56 66.21 66.52 66.18 66.31 66.23 66.29 65.57 65.45 66.20 66.48 64.61 64.37 65.00 65.45 66.24 68.06 66.51 61.07 58.53 59.36 61.53 61.52 63.75 64.09 63.71 62.82 63.33 63.37 61.99 61.12 60.61 60.09 60.01 61.04 62.16 63.07 63.25 63.44 63.86 63.64 63.56
65.35 66.02 66.07 66.14 66.41 66.15 66.48 66.54 66.53 65.91 66.40 66.59 65.98 66.20 66.13 65.09 68.70 67.74 67.60 66.28 61.33 57.38 58.29 61.28 61.48 62.98 62.93 63.05 63.19 63.14 62.57 61.08 60.58 59.31 58.88 59.11 60.16 60.97 61.04 61.57 61.93 62.13 62.00
65.72 65.92 65.90 65.98 66.16 66.32 66.17 66.16 65.83 66.18 65.91 64.46 61.82 63.01 65.08 66.87 67.82 66.10 67.08 66.68 66.01 61.99 58.30 60.87 61.21 61.95 62.74 62.52 63.47 63.05 62.29 61.59 59.19 58.75 58.82 58.62 58.50 58.89 58.78 59.07 59.70 60.84 60.68
65.74 65.59 65.46 65.79 65.24 65.91 67.10 66.49 65.67 65.18 64.02 65.16 65.19 64.73 64.71 65.64 65.01 64.90 66.50 64.68 62.39 62.00 58.68 59.85 61.27 61.68 60.74 61.50 62.30 62.81 62.90 62.03 61.67 58.32 58.71 57.58 56.96 57.49 58.32 58.70 59.61 59.58 57.81
65.69 65.42 65.28 65.11 64.89 65.72 66.32 64.17 64.31 64.64 63.58 62.98 63.80 64.02 64.49 64.74 64.68 64.57 65.13 64.74 63.76 62.15 60.02 57.95 60.16 60.57 60.94 61.68 61.78 61.14 61.26 61.53 61.36 58.40 57.00 56.35 55.95 56.50 57.02 57.20 55.00 53.80 52.86
65.58 65.44 65.39 65.23 63.74 65.01 64.19 64.02 63.88 63.33 63.42 64.25 63.59 63.11 64.19 64.87 62.02 62.26 63.27 65.30 63.96 62.18 62.20 59.91 58.80 60.62 60.73 61.20 60.36 61.00 60.80 60.75 60.40 58.69 56.17 55.53 55.20 54.94 54.07 52.77 51.42 49.98 49.05
65.27 65.16 65.17 64.42 63.41 63.08 63.17 62.97 63.38 63.49 63.34 65.08 64.10 64.65 64.19 63.54 61.48 62.03 63.20 63.46 63.68 62.61 61.09 60.30 59.12 58.94 59.52 60.14 60.07 58.07 57.87 59.07 59.11 59.19 55.46 55.51 54.22 52.89 51.41 50.63 50.14 48.66 47.21
65.88 65.43 64.72 63.76 63.39 63.05 62.60 63.10 63.10 63.21 62.72 64.19 65.53 64.67 64.81 62.44 60.15 61.36 63.78 64.63 62.85 60.61 60.32 59.05 58.13 58.24 57.92 57.87 57.55 59.19 59.04 59.41 60.63 60.27 56.68 56.14 56.60 55.30 54.60 50.57 49.48 47.45 45.84
65.74 65.61 65.47 64.60 63.64 62.14 51.27 54.05 59.62 63.77 63.78 64.05 64.64 64.90 64.18 61.29 58.06 53.87 55.25 56.33 60.20 60.62 59.37 58.63 58.01 57.19 58.30 58.35 58.79 57.93 59.86 59.40 57.46 62.36 60.50 57.41 58.54 56.33 54.64 51.34 45.63 45.11 44.61
66.16 65.18 64.57 64.42 62.52 62.96 49.90 50.91 53.32 64.58 64.37 64.43 64.64 62.67 62.17 63.61 61.86 60.80 53.32 53.31 53.19 52.95 56.95 60.37 58.83 59.11 58.03 58.86 58.52 60.20 61.11 61.17 60.06 60.61 58.70 54.94 56.44 52.54 50.78 47.16 43.92 43.68 43.10
65.40 64.35 62.81 63.74 63.18 61.49 48.69 48.89 52.68 64.12 64.54 65.47 64.07 65.68 64.68 64.18 60.96 62.50 61.90 59.81 58.20 59.18 60.81 61.46 60.87 60.91 61.32 62.42 63.19 64.43 64.26 63.87 62.23 59.69 60.88 55.08 56.38 53.40 51.85 48.00 42.80 42.58 42.01
61.26 62.43 62.79 62.26 62.52 60.53 46.17 48.35 55.69 64.27 64.71 64.71 65.48 64.64 64.60 64.39 49.14 51.64 60.81 58.12 57.11 54.16 49.63 50.53 51.96 52.70 50.53 52.63 58.95 63.23 60.62 59.94 58.74 59.84 61.28 57.60 56.29 54.03 53.19 49.71 45.19 41.89 41.19
65.17 63.93 62.54 60.22 55.00 57.67 45.09 47.08 57.50 62.17 61.85 62.45 63.95 64.09 50.97 57.25 46.70 50.49 61.48 62.20 58.23 57.05 57.64 59.98 58.89 53.70 57.21 56.49 53.49 66.22 63.45 60.87 60.53 58.71 60.61 58.06 56.53 55.32 52.84 54.34 52.32 47.86 46.54

GFSMA_sfc_wetblb_030.txt.gz
Wetbulb
69.30 69.70 68.77 69.26 68.98 68.21 67.48 66.95 66.66 66.29 65.59 65.34 65.32 65.35 64.97 65.05 65.82 65.43 66.85 69.45 69.75 69.33 68.68 68.71 68.84 69.13 70.35 71.17 71.59 71.34 71.36 70.94 70.40 70.23 69.94 69.60 68.91 68.41 68.62 68.37 68.66 69.14 69.23
69.64 69.58 70.02 68.85 68.48 68.46 67.24 67.08 66.20 65.81 64.84 64.88 65.05 64.98 64.91 65.73 66.66 65.19 65.28 67.43 68.83 68.84 68.37 68.35 69.06 69.34 70.12 71.64 71.71 71.70 71.55 70.85 70.08 69.78 69.60 69.18 68.46 68.31 68.59 68.48 68.94 69.17 68.53
70.21 70.87 69.45 68.83 67.79 67.95 67.89 67.19 66.45 66.59 65.49 64.47 64.53 64.04 64.40 64.64 65.38 65.80 65.82 66.58 66.26 68.53 68.55 68.42 68.97 69.30 69.81 71.61 71.70 71.64 71.02 70.67 70.09 69.43 69.37 68.70 68.39 68.40 68.64 68.88 69.08 68.51 67.22
70.87 70.53 68.93 67.88 68.06 68.80 67.69 66.33 65.62 64.84 64.98 64.34 62.95 63.71 63.98 64.49 65.05 65.73 64.79 65.84 65.60 65.47 67.65 68.74 69.48 69.82 69.83 71.59 71.86 71.63 71.12 70.50 69.85 69.59 69.28 69.12 68.34 68.82 68.29 68.34 68.12 66.96 65.99
70.04 69.32 68.27 68.22 69.19 67.91 66.82 66.02 65.13 64.86 63.84 63.61 63.13 62.82 64.20 65.02 65.29 65.83 64.48 65.35 65.94 64.93 65.99 68.18 69.16 69.49 70.74 71.88 71.81 71.89 71.60 70.34 69.66 69.32 69.14 68.96 68.91 68.75 68.66 68.10 66.84 66.09 65.51
70.00 69.30 68.08 68.76 68.46 66.87 66.28 65.23 64.27 64.74 63.53 63.12 64.18 63.34 63.81 64.40 65.00 64.53 64.98 65.21 63.86 64.40 66.08 67.20 66.67 67.51 70.80 71.91 71.52 71.84 71.77 70.38 69.48 69.11 68.16 67.79 68.36 68.61 68.33 67.20 67.05 65.85 65.25
69.32 69.30 68.58 67.98 67.47 66.06 65.29 64.76 64.03 63.11 60.48 62.01 62.33 61.64 62.53 63.64 63.75 63.47 64.12 63.08 63.53 65.22 65.63 66.41 66.71 66.91 68.58 70.83 70.65 70.99 71.13 70.32 69.23 68.52 67.96 67.65 68.45 68.23 67.82 67.28 66.89 66.25 65.82
68.76 68.82 68.37 67.39 66.95 65.70 64.71 64.20 63.46 61.47 61.21 62.45 59.45 59.23 57.09 59.50 62.17 63.68 63.64 63.74 65.38 65.00 65.58 67.14 67.08 67.29 68.58 69.09 69.53 70.23 70.87 70.51 69.87 68.68 67.68 67.59 67.77 67.54 67.51 67.00 66.12 65.01 64.28
68.98 68.60 67.41 67.40 66.31 65.54 63.97 63.86 63.67 62.56 61.13 62.60 62.24 59.28 56.17 54.82 57.39 61.74 62.46 63.35 64.27 64.95 64.82 66.78 67.10 67.93 66.37 66.64 67.23 68.23 69.68 69.99 69.90 68.77 66.89 67.34 67.29 67.34 66.93 66.38 65.85 64.58 64.08
68.11 67.67 67.56 66.08 65.62 65.23 64.71 64.49 64.28 63.07 62.29 60.04 61.78 62.42 61.80 60.03 56.18 54.84 60.11 61.56 63.51 62.87 64.59 65.66 66.20 64.84 66.00 64.88 64.38 65.71 67.00 68.48 69.07 67.74 67.67 67.35 66.71 66.47 65.93 65.51 63.26 64.22 63.67
68.16 67.32 67.08 66.77 65.76 65.84 65.18 64.42 64.01 63.06 63.39 61.70 61.43 60.55 60.66 60.45 58.57 55.97 54.86 59.05 61.47 62.49 63.91 66.02 66.71 64.52 64.29 63.00 62.93 63.97 65.80 66.09 66.65 67.19 67.22 66.98 66.72 65.73 63.59 61.95 63.62 63.93 63.56
67.64 67.35 66.74 66.46 66.51 65.93 64.93 65.46 64.80 64.09 63.32 62.93 62.79 62.77 61.46 58.62 56.75 56.73 57.08 58.55 58.02 60.52 63.19 64.62 64.86 66.03 65.17 64.20 65.91 65.50 64.67 64.59 64.07 64.23 64.47 64.74 64.55 62.92 63.80 65.02 64.61 64.14 63.89
66.08 66.80 66.68 66.20 65.85 65.91 65.83 65.34 64.54 64.38 63.67 62.50 62.02 62.69 62.94 61.92 61.67 60.76 59.29 58.07 58.55 60.89 61.58 63.51 65.50 66.07 65.96 65.54 65.44 64.68 63.86 62.36 61.47 61.19 61.69 62.57 63.17 63.80 64.77 65.00 64.39 64.07 63.53
66.56 67.10 65.98 66.08 66.21 66.02 65.17 65.44 65.02 63.72 63.83 63.68 62.53 62.85 62.87 62.57 63.00 61.12 60.03 58.81 57.51 58.46 60.34 60.06 62.28 63.89 65.30 65.76 65.18 63.87 62.04 60.86 60.29 60.02 60.24 61.14 62.14 63.01 63.32 63.58 63.83 63.86 63.91
66.14 66.42 65.94 66.36 66.47 66.07 65.79 65.42 63.76 63.81 63.86 63.26 63.58 63.17 63.10 64.21 62.95 61.35 59.67 60.12 58.23 56.17 57.05 59.71 59.75 62.56 63.62 63.34 63.18 62.10 61.73 60.83 60.74 59.40 59.18 59.56 60.32 60.99 61.26 61.25 61.48 61.27 61.38
65.16 66.20 66.32 66.12 65.90 65.68 65.72 65.13 64.38 65.77 63.75 62.91 62.50 63.26 63.19 63.71 63.20 62.48 62.53 62.17 61.71 58.91 56.67 60.62 59.77 61.07 62.37 61.82 61.17 60.18 61.74 61.25 59.76 59.34 59.30 58.67 58.62 58.96 58.96 59.14 59.61 59.97 59.57
66.18 64.98 65.22 66.02 65.40 65.05 65.01 64.49 65.00 63.58 62.47 62.30 62.44 61.59 61.84 61.95 62.41 62.94 62.57 61.90 61.24 60.78 57.81 58.78 59.92 60.87 60.72 60.13 60.72 61.66 62.06 61.34 60.08 58.72 58.95 57.74 57.00 57.27 57.69 57.90 58.18 57.86 57.78
65.24 65.26 64.67 65.10 64.53 64.82 65.81 64.70 63.86 64.47 63.67 62.68 62.02 61.70 61.51 63.15 61.84 62.70 62.17 61.52 61.07 61.01 59.05 56.93 58.28 58.86 59.40 60.53 60.45 59.76 60.12 61.56 60.51 58.60 57.21 56.55 55.83 55.57 54.84 54.20 53.77 53.72 53.54
64.51 64.12 64.23 63.92 64.26 64.82 64.33 64.26 64.05 63.59 63.58 63.26 62.30 62.17 61.71 62.07 61.88 61.74 61.99 61.52 61.14 60.69 59.71 58.27 57.43 58.78 59.40 59.78 59.22 59.35 59.14 58.74 59.17 57.39 55.15 54.83 54.20 53.51 52.44 51.44 50.80 50.35 49.43
63.93 63.55 64.60 64.44 64.62 63.87 63.72 63.93 63.75 63.86 63.94 63.52 63.05 63.73 61.84 60.73 61.23 61.58 61.80 61.12 60.94 59.46 58.89 58.17 57.47 57.49 57.97 58.29 57.93 56.43 55.81 57.67 56.77 56.77 54.47 53.23 51.88 51.55 50.68 49.89 49.42 48.52 46.89
64.00 63.65 64.60 64.21 63.88 63.00 62.50 63.95 63.89 63.59 64.00 63.47 63.30 63.69 61.41 60.19 58.36 60.79 61.50 61.00 60.03 59.11 58.07 57.87 57.11 56.83 56.15 55.89 54.30 54.68 54.70 55.03 54.61 52.83 50.82 50.23 49.63 49.03 48.37 49.24 48.95 47.42 45.83
65.17 64.58 64.41 63.39 63.34 61.62 50.96 53.06 58.77 63.85 64.25 63.46 62.96 61.62 60.59 58.37 55.95 55.10 56.41 57.05 59.00 58.94 57.94 57.63 57.05 55.87 55.51 54.40 54.29 54.54 54.50 53.47 51.09 53.88 51.86 51.08 50.97 49.27 46.41 45.00 45.92 45.22 44.91
65.08 64.09 63.78 63.81 61.99 60.94 50.46 50.53 52.74 64.67 63.79 63.84 63.17 63.14 62.56 61.24 60.13 59.02 52.95 53.40 53.50 53.09 56.14 58.97 57.09 56.65 54.99 54.88 56.31 55.83 55.30 54.72 53.02 53.56 52.80 50.53 49.29 45.20 43.91 43.49 44.29 43.75 43.34
64.82 64.73 64.24 62.99 61.82 59.61 51.49 46.24 49.14 64.51 63.87 64.05 63.74 63.72 62.41 62.48 60.28 60.64 60.14 59.60 59.38 59.73 59.58 60.04 59.36 58.53 57.60 57.49 58.04 56.30 58.20 58.34 56.61 56.89 55.07 49.21 48.46 45.42 44.08 41.21 43.53 42.79 42.03
64.26 62.89 63.83 63.10 61.25 59.90 46.24 46.44 56.51 63.91 63.62 63.44 63.85 63.72 62.63 59.43 49.64 51.13 59.21 58.39 58.17 57.63 52.54 51.15 50.71 49.86 49.70 51.41 56.89 59.34 58.78 56.29 54.79 54.75 55.49 51.35 49.26 46.50 43.60 40.88 40.56 42.60 41.40
64.12 63.94 62.48 62.52 57.33 60.30 47.16 47.16 54.10 63.20 62.04 61.00 61.74 60.06 52.61 55.99 48.07 50.42 59.31 58.66 57.35 57.83 58.45 57.93 55.99 52.68 52.44 53.23 51.68 59.99 59.89 55.80 54.58 53.33 55.89 53.06 49.89 48.70 44.61 43.34 39.89 39.10 38.88

GFSMA_sfc_wetblb_033.txt.gz
Wetbulb
66.58 64.49 63.00 63.31 64.11 63.81 64.47 63.65 63.63 64.61 62.67 62.67 63.22 64.11 63.98 63.76 64.00 64.56 63.97 69.93 70.33 69.80 69.93 69.72 69.43 69.52 70.57 71.31 72.01 71.64 71.36 71.31 70.76 70.37 70.62 69.38 68.48 67.65 67.31 67.34 67.01 68.53 68.70
65.76 64.74 64.39 64.52 63.66 63.44 62.26 63.07 62.44 62.17 61.31 61.83 61.63 62.86 63.68 63.93 64.34 64.43 64.42 64.83 69.36 69.06 69.35 69.26 69.37 69.17 69.74 71.49 71.42 71.66 71.50 70.99 70.73 70.17 69.75 69.40 68.54 67.76 68.07 68.08 68.49 68.70 68.41
64.89 64.98 63.93 64.01 64.06 63.78 63.29 63.07 62.91 62.83 62.32 61.76 61.67 61.87 61.84 63.41 63.34 63.38 64.30 66.34 65.93 68.65 69.26 69.70 69.74 69.59 69.51 71.15 71.66 71.82 71.29 71.25 70.82 70.32 69.70 69.48 69.31 69.23 68.94 68.68 68.84 69.49 67.82
65.22 64.88 64.17 63.63 63.93 63.67 62.91 62.37 62.10 61.50 61.79 61.55 60.29 60.10 61.60 62.81 62.06 63.93 63.75 65.30 64.06 64.56 68.03 68.67 69.53 70.21 70.15 70.68 71.79 71.59 71.05 70.93 70.28 69.90 69.72 69.53 68.96 68.86 68.97 68.82 69.10 67.61 66.52
66.84 64.88 64.45 63.77 64.13 63.66 63.03 62.57 61.72 61.23 60.30 60.59 60.75 60.13 60.45 61.33 61.67 64.00 62.68 61.93 63.26 64.15 64.61 67.95 68.47 69.49 70.26 70.75 71.88 71.68 71.36 70.76 70.15 69.71 69.55 69.14 68.69 68.89 68.90 68.42 67.24 66.26 65.74
66.67 65.28 64.36 63.71 64.00 62.59 61.61 61.59 61.00 60.75 59.87 59.71 61.38 61.02 60.67 61.17 61.83 61.85 61.97 63.33 62.45 62.75 63.31 64.13 65.87 66.80 69.80 70.85 71.98 71.56 71.76 71.04 70.23 69.87 69.11 68.80 68.90 68.74 68.04 67.46 66.61 66.05 65.15
66.28 65.30 65.30 63.76 63.46 62.36 61.62 61.67 60.61 59.63 58.59 59.45 58.86 58.95 58.33 59.87 60.21 60.88 61.50 61.53 61.59 61.63 61.22 64.92 65.08 66.14 67.01 70.65 70.44 71.39 71.59 71.28 70.53 69.49 68.66 68.30 68.14 68.15 67.92 67.02 66.88 66.21 64.15
64.54 64.19 63.38 63.13 61.85 62.11 61.59 61.38 60.93 57.89 57.33 58.41 56.65 57.63 54.75 56.25 58.21 60.47 60.80 61.43 60.16 61.55 62.84 64.79 64.59 65.45 65.64 67.44 68.29 70.07 71.02 70.92 70.49 69.29 68.27 67.69 68.00 68.03 67.32 67.17 66.72 65.49 63.13
64.74 63.75 63.61 62.43 62.65 62.34 59.93 59.51 59.65 58.67 56.43 57.87 57.91 54.77 51.90 51.75 54.29 57.95 59.68 60.95 62.61 61.46 61.71 64.02 64.72 64.84 64.74 67.01 68.61 69.67 69.65 69.82 70.25 69.13 68.41 67.96 67.86 67.19 67.15 66.83 66.28 63.64 61.47
65.64 64.63 63.92 62.77 61.62 61.18 60.21 59.95 61.09 59.61 58.79 57.15 57.89 59.20 57.59 56.67 52.09 51.46 56.53 58.74 60.13 60.48 60.04 61.82 63.34 63.61 63.50 64.27 68.16 69.50 68.30 68.56 69.85 68.90 67.83 68.32 67.68 66.78 66.39 66.18 64.84 61.55 63.31
63.95 64.51 63.41 62.34 61.66 61.00 60.39 60.22 59.79 59.31 58.73 57.45 56.79 56.29 56.71 56.21 57.69 53.19 51.33 54.72 57.33 58.78 60.67 61.63 61.55 62.00 63.76 63.48 63.67 66.47 66.45 66.80 67.36 66.97 67.41 67.68 66.98 66.69 65.82 64.27 63.48 64.07 63.63
62.39 63.24 63.62 62.11 61.67 61.01 60.73 60.31 60.07 59.65 59.87 59.78 60.06 59.30 57.71 55.23 54.29 53.96 52.16 53.59 54.46 56.95 59.20 61.14 62.21 61.57 61.53 62.86 64.20 65.14 64.30 64.25 63.83 64.39 65.43 65.90 65.55 65.54 63.33 63.77 64.27 63.93 63.60
61.61 61.54 61.63 61.37 61.10 61.19 61.69 61.47 60.73 60.46 60.38 60.14 59.20 58.53 58.97 58.25 58.29 56.15 55.13 54.11 55.38 58.40 60.65 62.18 63.87 63.12 63.22 64.42 64.44 65.06 64.85 63.26 62.37 62.28 62.68 62.65 62.68 63.17 64.16 64.55 64.05 63.91 63.74
61.38 61.57 61.45 61.58 62.04 62.27 62.05 61.40 60.87 60.01 60.25 59.42 59.82 59.51 60.06 59.48 61.47 59.07 56.53 56.91 56.05 58.16 59.36 59.47 62.22 64.18 63.54 63.78 64.83 64.19 62.63 61.15 60.36 59.31 59.26 60.31 62.23 62.80 63.15 63.38 63.50 63.32 63.65
61.56 61.65 61.70 61.65 62.04 61.77 61.66 61.21 60.04 60.72 60.55 58.96 59.42 59.17 59.42 60.57 59.82 57.58 58.67 59.98 57.37 54.90 56.27 58.98 58.96 63.59 63.84 63.28 63.19 62.22 61.55 60.66 60.00 58.88 59.18 59.94 60.41 60.85 61.04 61.09 61.40 61.43 61.66
61.43 61.33 62.03 62.23 61.87 61.59 61.78 62.00 60.52 61.26 59.63 59.78 59.41 59.27 59.67 60.18 60.25 60.77 58.99 57.85 58.55 56.27 54.76 59.38 59.69 61.87 62.78 62.07 62.00 61.22 61.16 60.66 59.75 59.08 58.89 58.59 58.42 58.61 58.88 58.89 59.20 59.08 59.02
61.34 61.75 62.92 62.52 61.82 61.93 62.33 60.79 60.08 61.62 60.92 60.19 60.75 59.45 59.49 59.51 60.00 59.96 60.81 58.25 57.87 57.45 56.83 58.42 60.21 60.41 59.46 60.30 60.54 61.09 61.52 61.23 60.07 59.09 58.91 57.71 56.94 56.95 57.28 57.34 57.27 57.26 57.43
60.61 61.35 62.30 62.56 62.63 62.33 61.21 60.58 60.41 61.03 61.29 60.61 59.57 60.00 59.07 62.28 60.52 60.09 60.08 59.42 58.86 59.35 58.03 56.99 58.96 58.42 58.21 59.58 60.24 60.08 60.28 60.87 59.98 58.49 57.13 56.47 55.87 55.38 54.94 54.34 54.17 54.21 53.94
61.12 62.23 62.10 62.46 62.39 62.06 60.83 61.04 61.60 61.05 61.70 61.60 61.37 60.97 60.61 61.36 59.78 60.04 60.39 60.04 60.18 59.94 59.24 58.13 57.39 58.94 59.32 59.82 59.24 59.58 59.24 58.70 59.05 57.73 55.43 54.89 54.08 53.35 52.69 52.08 51.55 51.23 50.41
61.21 62.11 62.06 62.24 61.65 60.80 61.20 60.94 60.87 61.03 61.43 62.11 62.16 61.54 60.86 60.46 60.23 60.49 60.28 60.03 59.91 59.26 58.68 57.63 57.65 57.71 57.91 58.39 58.21 56.53 55.87 57.39 55.54 54.66 53.72 52.72 52.08 52.16 51.40 50.99 50.85 49.82 48.00
61.85 63.20 61.29 60.66 60.46 61.03 60.46 59.96 62.33 61.93 61.61 61.35 61.24 61.15 60.65 59.85 59.80 60.15 60.78 60.18 59.33 58.35 57.51 56.89 56.07 56.03 55.89 56.19 55.15 55.87 53.66 53.86 52.99 51.85 49.63 48.59 47.64 47.61 48.41 49.85 49.92 48.39 46.16
62.92 61.89 60.56 60.07 58.48 58.76 50.44 52.42 57.45 61.31 62.36 61.13 59.39 59.82 59.82 58.44 57.11 55.68 55.97 56.63 58.56 58.04 57.07 56.43 55.79 54.97 54.83 54.52 55.67 54.67 53.40 52.00 49.32 51.61 49.31 47.60 47.55 45.73 44.56 44.66 46.49 45.55 44.92
60.66 60.55 59.51 59.30 57.19 55.47 47.06 47.06 50.69 62.59 62.40 60.96 59.70 59.86 60.27 59.17 58.88 57.51 52.73 53.01 53.11 52.70 55.61 57.69 56.03 54.73 53.89 55.09 55.26 54.00 53.12 52.44 50.47 50.90 49.67 45.70 45.25 41.80 42.72 43.85 44.49 44.17 43.72
59.79 60.15 59.39 58.01 56.95 53.39 46.32 45.79 49.44 61.41 60.81 62.00 60.63 59.82 60.58 60.55 58.86 59.76 59.37 58.96 58.95 58.88 58.59 58.94 57.58 56.52 56.06 56.76 55.98 55.05 54.49 52.40 52.35 52.02 50.37 44.91 44.65 42.08 40.87 40.90 43.39 43.01 42.42
59.65 59.95 59.46 57.13 55.87 53.14 46.52 45.81 56.03 60.81 60.44 60.59 61.10 60.02 60.58 59.17 49.58 51.16 59.38 58.19 57.83 56.85 51.37 50.36 50.16 49.05 48.30 49.50 54.61 57.98 53.58 51.51 50.51 50.04 51.70 46.33 44.57 41.62 39.55 38.18 39.78 42.88 41.47
59.59 60.97 59.83 57.65 54.22 54.65 47.62 45.81 53.06 60.06 58.80 59.52 58.91 57.72 51.41 55.27 47.44 49.98 59.09 58.42 56.95 57.05 57.53 56.63 54.63 51.43 52.07 51.01 51.76 57.56 55.19 52.56 51.98 49.51 51.94 47.70 44.60 43.69 40.00 39.60 37.58 38.90 37.55

GFSMA_sfc_wetblb_036.txt.gz
Wetbulb
65.28 65.02 65.17 63.43 64.06 63.69 63.58 62.55 62.35 63.02 63.00 63.18 62.72 62.69 63.05 64.31 64.40 62.90 63.60 67.75 69.92 70.25 70.87 69.86 69.84 70.15 70.47 71.47 72.15 72.16 71.59 71.47 71.02 70.53 70.50 70.28 70.17 69.54 68.73 68.29 68.92 69.08 69.11
66.10 66.01 63.54 61.66 62.84 63.05 63.27 63.91 64.02 62.56 62.36 62.46 61.52 61.20 61.87 61.82 62.55 63.82 63.49 63.24 69.00 69.50 69.68 69.50 69.36 69.63 69.97 70.54 71.88 71.72 71.33 70.58 70.89 70.78 70.57 69.75 69.13 68.23 68.19 67.86 68.11 68.85 68.71
66.59 65.43 63.66 63.21 62.71 62.71 62.04 63.75 62.50 61.45 61.01 61.14 60.57 61.22 61.11 61.22 61.85 63.28 63.12 63.21 64.23 68.95 69.34 69.87 69.35 69.35 69.76 69.81 71.64 71.74 71.09 70.64 70.74 70.49 70.03 69.13 68.98 68.37 67.96 68.15 68.47 68.81 68.53
66.68 64.17 63.13 62.95 63.20 62.62 62.08 61.40 60.91 60.59 60.50 60.50 59.89 59.90 60.19 60.85 61.41 61.35 62.37 63.85 63.84 64.63 67.80 69.21 69.24 69.31 69.39 69.38 71.09 71.15 70.87 70.62 70.63 70.02 69.79 69.33 68.68 68.85 69.09 68.74 68.87 68.60 67.75
65.47 63.95 63.12 62.94 62.92 62.30 61.40 61.05 60.61 60.21 59.16 59.04 59.78 59.95 59.60 59.80 60.99 62.44 62.57 62.77 63.00 63.83 63.07 66.62 68.59 69.33 69.92 70.16 70.80 71.14 71.32 70.76 70.66 70.05 69.66 69.62 69.51 69.01 68.85 68.84 68.34 67.27 66.25
65.79 63.71 63.41 62.85 62.85 61.48 60.94 60.64 60.10 59.70 59.45 58.95 60.60 60.97 59.19 60.09 60.16 60.92 61.36 62.22 61.44 63.09 62.83 62.98 65.08 65.36 69.62 70.31 70.42 70.80 71.46 70.86 70.64 70.14 69.51 69.18 69.15 68.72 68.65 67.93 66.81 66.03 65.48
64.83 63.35 63.09 62.50 62.34 61.68 60.54 60.32 60.18 60.12 59.60 59.06 57.17 56.97 58.47 60.53 60.15 60.15 60.57 60.79 61.26 61.81 60.85 62.65 63.45 63.84 66.28 69.70 69.91 70.38 71.29 71.00 70.62 69.98 69.01 68.45 68.54 68.53 67.89 66.94 66.71 66.05 62.61
64.48 63.96 63.02 62.22 62.06 60.88 60.59 60.11 59.32 57.65 57.73 57.55 55.26 56.45 54.41 56.74 57.97 58.76 59.65 60.06 60.08 60.26 60.64 63.14 63.61 63.97 63.89 65.41 67.22 69.94 70.72 71.07 70.78 70.16 68.78 68.12 68.01 68.22 67.60 67.14 66.39 63.37 62.03
64.02 63.55 62.71 62.07 61.31 60.96 59.54 58.92 58.63 57.25 55.16 55.67 56.23 53.32 50.52 52.33 55.39 56.77 58.02 59.20 59.63 59.11 59.99 62.62 63.12 63.83 63.47 64.44 67.69 69.04 69.54 69.99 70.32 70.00 68.68 68.21 67.99 67.75 67.64 66.56 65.19 63.42 63.42
63.32 64.04 62.73 62.16 61.22 60.44 59.34 58.67 59.48 57.91 56.79 55.10 56.75 58.00 55.57 54.93 51.24 50.34 55.81 57.66 58.92 59.11 59.22 60.89 62.09 63.12 63.47 64.59 68.09 68.56 68.11 68.32 69.55 69.83 69.00 68.66 67.95 67.15 66.76 66.63 64.50 62.76 64.06
63.15 63.53 62.69 61.67 60.40 59.48 59.19 59.06 59.01 58.21 57.59 56.21 55.30 55.10 55.32 55.03 55.55 52.47 50.68 54.41 57.41 57.73 59.05 60.50 61.41 63.44 63.80 62.86 65.13 66.99 66.55 66.88 67.42 67.86 67.91 67.96 67.91 66.70 65.99 65.29 62.29 63.32 63.74
61.40 62.42 62.60 61.10 60.38 59.53 59.42 59.28 58.88 58.32 57.79 57.65 57.31 57.25 55.79 53.18 52.44 53.38 50.72 52.22 53.34 56.11 58.46 60.89 61.28 61.96 61.21 61.97 66.14 65.41 64.07 64.08 63.64 64.43 65.47 66.36 66.48 66.31 66.02 63.59 63.67 64.41 63.84
60.25 60.84 60.64 60.04 59.73 59.95 59.95 60.00 59.21 58.83 58.35 58.23 58.47 57.83 57.21 56.63 56.03 54.49 53.43 53.22 53.87 55.46 57.77 61.76 61.96 60.15 61.11 61.97 64.68 65.07 63.53 62.12 61.53 61.98 63.17 64.14 63.88 64.17 63.89 64.63 64.33 63.87 63.56
59.98 60.48 60.36 60.10 60.61 61.01 60.99 60.38 59.43 59.11 59.06 58.59 57.62 57.53 57.43 57.75 59.72 58.41 55.19 54.92 53.77 54.80 58.03 59.34 62.54 62.27 62.84 62.28 64.04 64.58 61.96 62.33 61.17 60.61 60.64 60.37 61.05 62.26 62.77 63.13 63.53 63.63 63.61
60.64 60.27 60.53 60.41 60.84 61.20 61.07 59.86 59.11 59.26 59.28 58.32 58.06 58.02 58.37 59.60 60.32 57.95 57.51 57.37 55.91 54.66 54.89 58.92 59.44 62.44 63.25 63.91 63.55 62.23 61.95 60.35 60.32 58.82 58.86 59.39 60.35 60.97 60.91 60.98 61.17 61.36 61.65
60.21 60.35 60.22 60.58 60.63 60.79 60.81 60.13 59.53 61.06 59.34 58.19 58.80 58.34 58.50 58.25 58.97 57.49 57.89 57.85 58.65 57.06 54.11 59.00 59.85 62.01 61.85 62.21 63.03 61.72 61.35 59.91 58.92 58.89 58.71 58.93 58.41 58.39 58.65 58.91 58.99 59.53 59.90
59.96 60.69 61.63 61.36 60.80 60.91 60.70 59.55 59.09 59.92 57.43 58.28 59.57 59.48 58.92 58.80 59.36 57.87 57.23 56.91 57.31 57.63 56.49 58.40 60.35 61.13 60.16 60.26 59.92 60.01 59.57 57.84 57.95 58.56 58.62 57.41 56.43 56.42 56.78 56.73 56.83 57.28 57.69
60.07 61.11 62.07 61.53 61.65 61.24 59.60 59.80 59.71 60.66 60.65 59.33 59.43 58.36 58.24 61.09 59.11 59.00 57.75 56.35 55.93 57.47 58.46 57.03 58.23 58.98 58.81 59.39 58.64 58.54 59.69 60.64 60.36 58.73 57.21 56.43 55.57 54.90 54.66 54.22 54.14 54.03 53.97
59.24 60.05 60.97 61.34 61.34 60.73 60.13 60.33 61.02 60.64 60.91 60.51 60.07 59.85 59.73 59.98 59.70 60.00 59.45 58.75 58.97 58.95 59.15 57.71 56.63 58.58 58.72 58.83 59.04 59.07 58.41 58.25 58.85 57.71 54.99 54.67 54.29 53.90 53.19 52.54 52.07 51.72 50.92
60.10 61.33 61.11 61.22 60.54 60.02 60.07 59.81 60.41 60.35 61.28 61.06 61.25 61.05 60.74 60.11 59.70 59.94 59.92 59.58 59.45 59.16 58.87 57.19 57.05 57.27 58.25 58.55 57.95 56.19 55.68 56.63 54.04 54.03 53.13 52.45 52.47 52.62 52.09 51.77 52.02 51.16 49.02
62.09 61.96 60.02 59.20 59.17 59.37 58.50 58.75 60.58 60.25 61.33 61.17 60.70 60.86 60.58 60.04 59.22 59.35 60.11 59.56 59.19 58.29 57.93 57.05 56.57 56.61 56.21 55.66 55.10 55.45 53.40 52.87 51.56 51.75 49.51 48.42 47.64 47.88 48.92 51.08 51.89 50.25 47.80
61.96 60.90 59.09 58.87 57.38 57.56 48.85 50.21 56.19 60.90 60.80 59.69 58.72 59.32 59.36 58.25 56.85 55.66 56.00 56.27 58.26 58.25 57.47 56.79 55.97 55.18 55.75 55.36 55.08 54.32 52.96 51.77 49.05 51.14 47.84 45.77 46.61 44.48 44.00 44.84 47.17 46.15 45.45
59.55 58.12 57.67 57.19 55.41 54.33 45.72 46.11 50.85 60.76 59.23 58.09 58.44 60.27 60.09 58.95 58.15 57.77 52.20 52.67 52.52 52.63 55.81 57.73 56.03 55.55 55.03 55.51 55.39 54.18 54.05 52.32 49.59 48.79 47.78 43.10 42.98 40.47 42.47 44.42 45.02 44.36 44.12
58.19 57.87 56.55 55.89 54.57 54.26 45.37 46.13 51.93 60.47 59.38 59.88 59.04 60.70 59.72 59.09 57.99 58.64 58.62 57.88 57.92 57.77 57.77 58.56 57.28 57.32 57.19 56.87 56.25 55.31 52.67 50.27 49.19 48.92 47.98 42.30 42.18 40.51 40.64 40.79 43.78 43.56 42.94
57.55 57.37 56.21 55.27 54.47 53.60 45.04 47.22 55.44 59.62 59.68 59.90 60.50 60.75 60.22 58.88 49.00 50.10 58.43 57.17 56.89 54.94 49.97 48.69 48.43 48.00 47.24 48.33 53.06 53.64 51.25 49.64 47.33 47.47 49.03 44.26 42.57 39.70 38.25 37.60 39.45 43.01 42.01
59.98 59.35 55.91 54.75 52.69 54.06 45.21 47.04 54.96 59.96 59.29 58.40 58.31 57.27 51.55 55.31 46.68 49.30 58.16 57.53 56.01 55.72 55.41 54.64 54.44 51.22 51.78 51.48 51.09 54.25 52.66 49.84 48.45 47.44 49.81 44.82 42.28 40.81 38.69 38.72 37.10 38.89 38.19